Погода в Оноре

Россия / Сахалинская область     50°11′29″N   142°40′55″E
темп.,
°C
ветер,
м/с
пор.,
м/с
влажн.,
%
обл.,
%
осадки,
мм/ч
давл.,
гПа
погр.,
м
24 мая, вт
вт2423:00+6ююв389488 0.0 1015364
02:00+4ю389485 0.0 1014329
05:00+4ююв389498 0.0 1014294
08:00+5ююв4993100 0.0 1014378
11:00+7ююв5108798 0.0 1013535
14:00+11ююв61078100 0.0 1012770
17:00+10ююв71281100 0.1 1010721
20:00+6ююв61393100 0.0 1011567
25 мая, ср
ср2523:00+5ююв4897100 0.6 1012369
02:00+4ююв3898100 1.1 1011332
05:00+4юв2399100 1.6 1011157
08:00+5вюв1198100 0.4 1011105
11:00+6ссв1296100 0.5 1011205
14:00+7ссв2394100 0.0 1010333
17:00+10с2384100 0.1 1009544
20:00+8ссв238330 0.1 1010248
26 мая, чт
чт2623:00+3сз11931 0.1 101211
02:00+2юз11935 0.0 101210
05:00+1ю22945 0.0 101224
08:00+5ююв34846 0.0 1011281
11:00+12ююв34575 0.0 1010704
14:00+17ююв34455 0.0 10071264
17:00+18ююв444315 0.0 10061189
20:00+11ююв487693 0.0 1008352
27 мая, пт
пт2723:00+5ю249819 0.0 101193
02:00+4ююв2498100 0.0 1011102
05:00+4ю2397100 0.0 101068
08:00+8ююв3583100 0.0 1010238
11:00+14ююв4665100 0.0 1009532
14:00+17ююв5764100 0.0 1008845
17:00+17ююв6863100 0.0 1007837
20:00+13ю51082100 0.0 1008447
28 мая, сб
сб2823:00+6ю4998100 0.0 1010255
02:00+6ю4896100 0.0 1009272
05:00+6ю2597100 0.0 1009201
08:00+8ю2694100 0.0 1008233
11:00+12ю5984100 0.0 1008511
14:00+14ю4778100 0.0 1008452
17:00+13ю4781100 0.0 1008530
20:00+11ю3893100 0.0 1009411